Temp
60 60 60 60 60 60 60 61 61 61 61 61 61 61 61 62 63 70 59 61 64 66 65 76 76 75 77 71 72 73 68 57 55 57 58 66 63 70 71 69 70 69 68 70 74
59 59 59 59 60 60 60 60 60 60 60 61 61 61 61 61 68 64 65 65 65 65 69 70 70 75 69 68 69 70 61 53 59 59 57 62 63 64 65 66 63 64 70 72 73
58 58 59 59 59 59 60 60 60 60 60 60 61 61 61 63 64 61 66 65 65 67 70 71 71 72 65 67 63 62 55 59 57 57 59 60 62 66 62 58 61 59 64 67 69
57 57 58 58 58 59 59 60 60 60 60 60 61 61 61 67 55 65 65 65 66 72 71 72 70 65 62 59 63 55 58 60 56 57 58 57 61 61 61 60 65 66 67 67 67
57 57 57 57 58 58 59 59 60 60 60 61 62 61 65 63 57 69 65 67 71 71 67 67 67 66 60 61 63 57 57 59 58 58 58 62 58 58 60 65 67 68 67 66 66
56 56 56 57 57 58 59 59 60 60 60 61 62 61 65 55 66 69 67 67 67 69 65 67 66 68 61 59 59 58 59 58 59 58 58 57 57 61 62 66 66 65 65 66 65
56 56 56 57 57 58 58 59 60 60 60 61 62 67 62 54 68 69 68 66 67 65 63 65 65 64 64 55 60 60 53 56 57 57 55 57 55 55 63 64 63 64 65 65 66
56 56 56 56 57 57 58 59 59 60 60 61 61 67 55 66 71 66 68 67 69 68 65 65 66 60 60 60 58 56 59 52 54 55 56 55 48 57 63 62 61 63 64 63 64
56 55 56 56 57 57 58 59 59 60 61 62 64 63 54 66 62 65 66 60 65 67 66 66 64 59 58 57 54 56 50 49 49 54 53 56 49 58 63 61 60 61 62 62 62
56 55 56 56 57 57 57 58 60 62 65 66 66 59 59 54 60 62 66 63 59 61 62 61 61 58 59 55 50 48 48 46 48 50 52 52 50 56 60 60 59 60 61 60 59
56 56 56 56 57 57 60 62 59 58 59 51 51 53 55 60 64 60 61 60 61 59 55 56 55 47 47 51 53 51 49 47 48 49 47 50 50 53 58 58 57 58 59 58 57
56 56 55 56 57 56 60 58 54 56 49 55 54 55 57 58 54 57 64 56 56 50 53 52 43 46 48 48 48 49 47 45 47 48 47 49 49 54 57 56 57 57 57 57 56
56 55 55 56 56 58 57 55 58 58 52 50 53 53 53 58 50 51 57 54 54 50 50 46 44 46 47 45 45 45 43 41 41 46 50 47 48 50 56 57 57 58 58 58 54
56 55 55 56 54 56 55 56 58 58 38 44 48 51 54 55 48 55 55 53 49 46 47 44 46 44 44 42 44 42 44 41 41 41 41 47 37 48 50 50 53 54 55 55 52
56 55 55 55 55 54 53 57 58 56 32 45 47 58 54 50 50 50 56 54 46 44 46 40 43 43 42 41 44 40 43 41 42 41 37 43 38 44 48 43 47 51 53 51 47
55 55 54 54 55 53 56 57 56 36 32 35 45 45 47 48 47 50 50 53 51 46 46 42 46 45 43 44 44 45 42 42 43 43 33 40 38 36 39 40 46 50 52 46 44
55 54 53 55 50 55 56 54 34 31 38 34 39 44 46 42 42 46 43 42 40 35 35 40 42 45 45 43 45 43 42 35 32 33 35 41 37 41 46 48 48 48 50 45 44
54 53 49 51 54 54 53 45 31 34 34 40 42 44 42 42 39 42 42 40 40 41 40 38 34 41 44 42 41 41 42 35 28 31 36 41 34 42 49 52 52 52 51 47 45
53 48 47 48 51 51 48 32 35 38 40 38 40 38 36 39 39 38 41 44 42 43 41 37 35 43 42 44 44 41 39 42 34 29 30 40 42 47 49 48 48 49 48 47 43
48 46 45 49 50 48 37 36 35 42 43 43 39 40 32 36 35 35 38 43 39 43 45 42 32 40 41 43 44 42 45 35 37 26 26 36 34 39 40 41 44 45 45 46 46
46 39 45 49 48 40 32 34 35 42 43 41 40 35 40 36 38 34 38 39 44 41 45 45 41 35 39 38 39 39 38 39 39 35 29 27 37 42 40 42 41 44 45 46 45
43 33 46 49 34 32 32 33 40 39 41 41 44 41 40 39 38 39 36 40 47 45 38 44 42 34 36 41 42 41 40 41 34 30 35 32 34 43 43 44 44 44 45 47 47
33 35 43 46 30 30 31 31 36 36 36 39 40 42 42 39 34 40 41 42 46 43 40 42 36 28 30 36 40 36 40 41 39 38 32 29 36 45 46 45 45 43 44 46 46
34 30 35 37 40 34 32 31 31 37 36 38 40 42 39 36 40 36 37 39 42 43 40 43 37 35 35 34 39 33 37 39 39 32 34 35 39 43 43 41 42 43 44 45 45
34 33 35 28 30 33 35 34 31 30 35 37 35 39 38 32 36 35 38 36 40 40 40 40 31 34 35 34 35 36 36 36 35 39 33 38 36 43 42 40 42 43 43 44 43
32 33 37 35 36 32 34 31 32 35 33 32 31 37 37 32 38 34 37 37 36 38 37 35 28 29 25 31 32 30 35 37 38 39 39 39 37 46 43 43 43 42 42 41 41
39 44 43 36 34 31 32 35 35 39 38 39 38 35 33 38 41 45 47 46 43 37 33 32 26 26 27 26 28 24 28 35 38 40 40 34 42 43 41 40 40 40 40 40 41
MSLP
1022.54 1022.38 1022.20 1022.10 1021.90 1021.61 1021.26 1020.94 1020.63 1020.34 1020.06 1019.74 1019.32 1018.76 1018.43 1018.11 1017.14 1016.64 1016.74 1018.33 1017.67 1016.79 1016.11 1014.22 1013.43 1012.95 1012.32 1012.52 1012.54 1012.05 1011.15 1013.06 1014.77 1014.99 1015.69 1015.84 1015.54 1015.37 1015.38 1014.81 1014.85 1015.54 1015.79 1015.77 1015.42
1022.66 1022.59 1022.31 1022.18 1022.00 1021.68 1021.37 1020.98 1020.69 1020.32 1020.00 1019.72 1019.34 1018.89 1018.41 1018.13 1017.38 1016.97 1018.25 1017.69 1017.25 1016.70 1015.50 1014.43 1013.56 1012.65 1012.62 1012.99 1013.17 1012.22 1013.25 1015.73 1017.04 1017.32 1017.20 1016.80 1016.51 1016.27 1015.78 1015.32 1015.89 1016.08 1016.08 1015.86 1015.41
1022.74 1022.70 1022.52 1022.29 1022.09 1021.76 1021.41 1021.04 1020.70 1020.33 1019.93 1019.65 1019.32 1018.88 1018.62 1018.14 1017.36 1017.85 1018.05 1017.54 1017.03 1016.43 1015.70 1015.01 1014.10 1013.11 1013.08 1013.73 1014.35 1014.69 1015.63 1017.06 1017.93 1018.37 1018.17 1017.60 1017.09 1016.87 1016.43 1016.46 1017.12 1016.72 1015.98 1015.74 1015.33
1022.71 1022.72 1022.61 1022.38 1022.12 1021.81 1021.45 1021.06 1020.68 1020.38 1020.03 1019.69 1019.34 1018.96 1018.53 1017.74 1018.26 1018.38 1018.37 1017.74 1016.95 1016.04 1015.25 1014.49 1014.11 1013.65 1013.80 1014.40 1015.17 1015.96 1017.34 1017.54 1018.49 1018.89 1018.56 1018.05 1017.79 1017.30 1017.53 1017.76 1017.78 1017.27 1016.71 1015.86 1015.42
1022.71 1022.73 1022.62 1022.39 1022.17 1021.86 1021.55 1021.12 1020.74 1020.43 1020.05 1019.67 1019.29 1018.87 1018.35 1017.62 1018.94 1018.93 1018.67 1017.84 1016.78 1015.97 1015.57 1015.16 1014.51 1014.21 1014.66 1015.40 1015.67 1016.53 1017.81 1018.34 1018.80 1018.85 1018.80 1018.02 1017.90 1017.71 1017.53 1017.59 1017.28 1016.79 1016.38 1015.95 1015.66
1022.61 1022.65 1022.57 1022.39 1022.18 1021.84 1021.57 1021.16 1020.76 1020.47 1020.17 1019.75 1019.30 1018.80 1018.09 1018.35 1019.58 1019.17 1018.89 1018.16 1017.61 1016.62 1016.35 1015.83 1015.77 1015.29 1015.71 1016.34 1016.24 1017.37 1017.70 1018.35 1018.71 1018.88 1019.02 1018.38 1018.21 1017.60 1017.61 1017.50 1016.94 1016.53 1016.12 1015.91 1015.67
1022.57 1022.53 1022.47 1022.36 1022.13 1021.83 1021.52 1021.13 1020.79 1020.43 1020.22 1019.87 1019.51 1018.79 1018.20 1019.74 1019.55 1019.26 1018.89 1018.62 1018.19 1017.85 1017.25 1017.18 1016.99 1016.28 1016.37 1017.06 1017.65 1017.48 1017.89 1018.13 1018.56 1018.71 1018.89 1018.96 1017.88 1017.87 1017.75 1017.44 1016.82 1016.37 1016.08 1015.96 1015.50
1022.51 1022.54 1022.42 1022.35 1022.12 1021.77 1021.45 1021.12 1020.83 1020.43 1020.23 1019.95 1019.65 1018.75 1019.13 1019.81 1019.61 1019.42 1019.04 1018.53 1018.43 1018.36 1018.24 1018.21 1017.87 1017.50 1017.36 1017.84 1017.76 1017.31 1017.06 1017.36 1018.78 1018.92 1018.91 1018.84 1017.91 1018.00 1017.86 1017.37 1016.85 1016.40 1016.09 1015.98 1015.60
1022.42 1022.50 1022.34 1022.26 1022.06 1021.68 1021.30 1021.06 1020.83 1020.44 1020.21 1019.91 1019.49 1018.94 1019.55 1019.79 1019.76 1019.87 1019.64 1019.34 1018.90 1018.55 1018.62 1018.42 1018.11 1017.91 1018.25 1017.25 1016.94 1016.84 1016.67 1017.56 1018.61 1019.36 1018.97 1018.09 1017.97 1018.10 1017.91 1017.40 1016.81 1016.35 1016.01 1015.89 1015.64
1022.33 1022.35 1022.24 1022.12 1022.03 1021.64 1021.14 1020.93 1020.62 1020.20 1019.82 1019.62 1019.43 1019.45 1020.19 1020.24 1020.35 1020.23 1019.92 1019.71 1019.27 1018.84 1018.26 1018.18 1017.84 1017.76 1017.66 1017.60 1016.44 1016.86 1017.28 1018.19 1018.39 1019.47 1019.07 1018.31 1018.16 1018.01 1017.77 1017.39 1017.03 1016.65 1016.34 1016.21 1016.19
1022.20 1022.30 1022.22 1022.06 1021.95 1021.68 1020.85 1020.63 1020.78 1020.27 1020.19 1020.65 1020.61 1020.29 1020.65 1020.92 1020.61 1020.43 1020.29 1019.72 1019.24 1019.08 1018.50 1018.85 1018.24 1019.18 1019.69 1019.08 1018.45 1018.33 1018.45 1018.56 1019.24 1019.96 1019.62 1018.67 1018.21 1018.01 1017.84 1017.56 1017.22 1016.99 1016.71 1016.53 1016.61
1022.08 1022.18 1022.24 1022.07 1021.88 1021.79 1021.26 1020.74 1021.42 1021.59 1021.24 1021.35 1021.19 1020.88 1021.12 1021.21 1020.53 1020.53 1020.25 1019.75 1019.19 1019.35 1019.68 1019.50 1020.47 1021.51 1021.44 1020.69 1019.97 1019.50 1019.47 1019.84 1020.08 1020.35 1020.09 1018.80 1018.14 1017.93 1017.91 1017.81 1017.89 1017.44 1017.26 1017.06 1016.86
1022.00 1022.12 1022.20 1022.09 1021.85 1021.70 1021.45 1021.85 1021.95 1021.72 1021.00 1021.45 1021.37 1021.20 1021.25 1021.23 1021.11 1021.16 1020.76 1020.42 1019.81 1019.88 1020.27 1020.69 1022.25 1022.59 1022.01 1021.81 1021.11 1020.90 1020.74 1020.98 1021.12 1020.74 1020.16 1019.41 1017.48 1017.89 1018.00 1018.38 1018.38 1018.22 1018.49 1018.15 1018.06
1021.92 1022.12 1022.14 1022.06 1022.29 1021.93 1021.72 1022.24 1022.22 1022.02 1021.74 1021.45 1021.39 1021.38 1021.35 1021.25 1021.54 1021.84 1021.77 1021.48 1020.89 1021.04 1021.59 1022.42 1023.27 1022.99 1022.81 1022.63 1022.48 1021.78 1022.23 1022.01 1021.58 1020.84 1019.74 1019.92 1018.46 1017.96 1018.62 1018.88 1018.95 1018.80 1018.82 1018.86 1018.88
1021.62 1022.13 1022.27 1022.17 1022.04 1022.01 1022.53 1022.40 1022.32 1021.99 1022.18 1021.79 1021.45 1021.68 1021.52 1021.35 1021.68 1021.79 1021.98 1021.37 1021.36 1021.65 1022.12 1023.39 1023.48 1023.39 1023.08 1023.49 1023.26 1023.00 1022.95 1022.44 1021.81 1021.08 1020.70 1019.78 1019.47 1018.61 1019.06 1019.42 1019.40 1019.39 1019.57 1020.00 1020.06
1021.45 1021.99 1022.31 1022.21 1022.05 1022.61 1022.65 1022.50 1022.30 1022.41 1021.88 1021.86 1021.71 1021.39 1021.41 1021.61 1021.92 1021.93 1021.76 1022.07 1022.53 1022.23 1022.53 1023.74 1024.39 1024.24 1023.90 1023.92 1023.92 1023.78 1023.24 1022.58 1021.85 1020.93 1020.34 1019.85 1020.03 1019.62 1020.05 1020.40 1019.95 1019.95 1020.14 1020.98 1020.72
1021.55 1021.90 1022.51 1022.33 1022.57 1022.77 1022.83 1022.45 1022.79 1022.33 1022.06 1021.88 1021.59 1021.42 1021.44 1021.98 1022.24 1021.97 1021.86 1022.15 1022.35 1022.41 1022.82 1023.65 1023.97 1024.50 1024.54 1023.81 1023.87 1023.72 1022.84 1021.78 1021.38 1020.63 1019.61 1019.98 1020.07 1019.59 1020.48 1020.72 1020.80 1020.71 1021.01 1021.56 1021.25
1021.56 1021.90 1023.02 1023.30 1023.07 1022.95 1022.90 1022.71 1022.74 1021.41 1021.54 1021.69 1021.57 1021.52 1021.53 1022.25 1022.61 1022.43 1022.19 1022.24 1022.78 1022.16 1022.18 1022.79 1023.90 1024.29 1024.64 1024.24 1023.64 1023.43 1023.03 1022.08 1021.71 1020.91 1019.86 1019.86 1019.79 1019.73 1020.69 1021.10 1021.26 1021.34 1021.79 1021.68 1021.29
1021.53 1022.28 1023.10 1023.78 1023.71 1023.41 1023.23 1023.08 1021.44 1021.11 1021.38 1021.57 1021.92 1021.54 1021.96 1022.52 1022.72 1022.70 1022.34 1021.89 1022.43 1022.33 1021.78 1022.41 1023.68 1024.53 1024.87 1024.67 1024.23 1023.31 1023.00 1023.31 1022.41 1022.83 1021.65 1019.72 1019.98 1020.46 1020.88 1021.18 1021.59 1021.69 1022.11 1021.98 1022.08
1021.20 1022.36 1023.61 1024.07 1024.02 1024.04 1023.85 1022.43 1021.68 1021.54 1021.69 1021.58 1020.99 1021.14 1021.30 1022.06 1022.60 1022.69 1022.38 1022.30 1022.69 1022.70 1022.52 1022.41 1023.54 1024.48 1024.86 1025.01 1024.54 1023.79 1023.68 1023.40 1022.71 1022.40 1021.24 1020.00 1020.44 1020.43 1021.46 1021.88 1022.16 1022.34 1022.75 1022.60 1022.57
1020.97 1022.65 1023.85 1023.88 1024.09 1024.62 1023.66 1022.72 1022.10 1021.94 1022.02 1021.90 1021.41 1021.37 1021.02 1021.63 1022.18 1022.47 1022.30 1022.87 1022.73 1023.11 1022.85 1022.66 1022.93 1024.87 1024.93 1024.63 1023.96 1024.06 1023.69 1023.64 1023.15 1022.92 1022.13 1021.42 1020.71 1022.31 1022.93 1023.24 1023.29 1023.48 1023.72 1023.47 1023.08
1021.20 1022.67 1023.70 1023.55 1024.50 1024.44 1023.96 1023.15 1022.57 1022.42 1022.51 1022.05 1021.70 1021.54 1021.26 1021.66 1021.79 1021.95 1022.25 1022.64 1022.83 1023.12 1022.85 1023.17 1023.10 1023.93 1024.27 1024.64 1024.89 1024.34 1023.61 1023.47 1022.85 1023.00 1022.76 1022.83 1022.18 1022.99 1023.55 1023.81 1024.00 1024.23 1024.41 1024.15 1023.73
1021.31 1023.02 1023.89 1023.71 1023.30 1023.82 1024.00 1023.87 1023.30 1023.03 1022.82 1022.49 1021.90 1021.66 1021.75 1021.64 1022.24 1022.18 1022.34 1023.53 1023.37 1023.40 1023.39 1023.61 1023.76 1024.36 1024.76 1025.11 1024.92 1024.44 1023.93 1023.83 1023.70 1023.33 1022.75 1022.84 1022.05 1022.98 1023.53 1023.92 1024.29 1024.64 1024.81 1024.66 1024.45
1021.07 1022.71 1023.43 1023.97 1022.53 1022.70 1023.36 1023.44 1023.51 1023.30 1022.94 1022.77 1022.21 1022.20 1022.15 1022.12 1022.34 1022.59 1022.87 1023.76 1023.95 1023.89 1024.26 1024.27 1024.09 1023.81 1023.71 1023.74 1023.77 1024.07 1023.86 1024.01 1023.69 1023.17 1022.58 1022.11 1021.80 1022.49 1023.38 1024.20 1024.67 1024.98 1025.11 1025.14 1025.21
1019.45 1020.06 1020.08 1021.59 1021.66 1022.18 1022.49 1022.30 1022.73 1022.99 1023.09 1022.83 1022.67 1022.15 1021.99 1022.30 1022.43 1022.62 1023.03 1023.89 1024.25 1024.43 1024.91 1024.75 1024.97 1024.96 1024.90 1024.79 1024.68 1024.14 1023.87 1023.88 1023.53 1022.78 1022.66 1021.91 1022.21 1022.52 1023.67 1024.50 1024.98 1025.43 1025.52 1025.55 1025.75
1017.79 1018.25 1019.44 1019.67 1020.12 1021.57 1021.93 1021.34 1021.40 1021.83 1021.95 1022.30 1022.28 1021.96 1022.26 1022.33 1021.92 1021.92 1022.45 1023.02 1023.16 1024.57 1025.07 1025.58 1026.03 1026.04 1025.89 1025.74 1025.41 1024.80 1024.05 1023.58 1023.47 1022.85 1022.37 1022.53 1022.41 1022.99 1024.18 1024.79 1025.05 1025.66 1026.06 1026.15 1026.34
1016.49 1016.59 1017.01 1018.61 1019.56 1020.51 1019.85 1019.92 1020.28 1020.91 1021.57 1021.50 1021.57 1021.45 1022.56 1022.36 1022.39 1021.94 1022.24 1022.52 1022.98 1023.75 1024.97 1025.68 1026.23 1026.61 1026.47 1026.36 1025.81 1024.70 1022.92 1022.79 1022.66 1022.26 1022.11 1022.27 1022.43 1023.52 1024.36 1025.12 1025.65 1026.16 1026.58 1026.75 1026.90
Wind_Speed
5 6 7 8 10 11 12 13 14 14 15 15 14 12 12 12 14 9 16 12 14 22 22 8 4 2 4 5 7 3 1 9 9 9 8 11 11 11 8 8 8 12 14 17 20
4 6 6 8 10 11 12 13 14 14 14 15 14 12 10 8 7 16 14 19 19 20 11 9 5 3 5 5 5 7 8 6 7 7 8 10 10 13 9 9 13 16 19 20 20
3 5 7 8 10 11 12 13 14 14 14 14 14 12 10 7 4 8 21 21 20 18 6 7 3 3 9 9 7 7 7 9 6 6 5 8 10 9 11 13 18 23 24 23 21
2 4 7 8 10 11 12 13 13 14 13 13 15 12 10 3 2 11 20 20 16 13 3 5 2 2 6 7 4 10 8 5 3 3 5 9 6 8 10 11 15 17 19 20 19
1 4 6 8 10 11 13 13 13 13 12 13 15 11 7 6 6 12 17 15 11 8 9 7 8 7 7 9 15 15 10 9 3 3 9 4 8 4 13 14 15 15 17 18 18
2 3 6 8 10 11 12 13 12 12 12 13 15 13 4 4 7 12 13 12 15 14 16 12 10 11 11 7 6 8 13 7 6 6 5 5 5 10 14 14 16 17 18 17 17
4 3 6 8 10 11 12 12 11 10 11 12 13 8 14 6 5 10 10 9 11 13 10 13 4 2 6 9 8 14 10 3 8 8 4 6 8 12 13 15 16 17 18 18 18
4 3 5 8 10 11 13 11 9 9 10 10 10 6 5 2 6 11 12 4 9 10 7 9 7 6 5 12 7 6 5 6 8 11 3 5 6 11 14 14 17 19 17 18 20
5 3 4 7 10 11 11 11 7 9 6 7 4 6 4 1 3 9 9 7 8 5 6 4 4 4 5 7 7 4 5 3 6 5 4 4 2 9 12 15 18 18 19 19 22
6 4 4 6 9 12 12 6 7 6 4 3 1 3 1 3 4 6 5 7 4 6 2 5 2 5 4 5 0 5 6 2 2 5 3 2 3 6 12 16 19 20 20 21 22
7 4 3 5 8 10 6 4 4 4 8 6 3 3 2 3 3 6 4 5 1 1 3 7 4 8 8 10 9 6 5 3 3 3 5 2 5 4 11 16 21 21 22 23 24
8 5 3 5 7 8 4 3 3 4 5 3 2 5 3 3 1 11 8 1 2 4 3 4 8 5 4 3 5 3 2 4 1 1 4 4 10 5 9 15 20 22 23 25 27
8 5 2 4 5 3 3 3 2 4 1 3 2 2 2 4 4 8 7 1 7 9 5 5 6 2 2 4 4 5 4 3 4 6 5 10 12 9 5 14 19 21 21 24 27
9 5 2 3 3 1 2 3 2 4 2 5 4 3 2 0 3 5 5 4 3 7 7 7 2 1 2 2 6 2 2 3 3 5 3 4 5 8 10 16 20 22 23 25 28
10 5 1 2 2 0 3 1 2 3 3 4 4 2 1 1 4 4 4 1 4 7 2 4 2 2 1 3 5 4 3 2 0 2 4 6 5 7 12 17 21 22 23 24 22
12 7 6 2 1 3 1 1 3 4 8 3 2 4 5 1 2 2 3 5 2 7 11 5 1 4 4 1 2 3 2 2 2 3 3 3 4 4 8 15 20 22 23 20 22
13 10 1 1 3 3 1 3 3 4 2 3 4 5 4 3 2 1 3 4 3 6 3 2 2 1 2 3 4 4 5 2 3 3 2 2 6 6 11 15 18 20 21 18 20
15 11 5 4 3 2 2 1 4 2 3 1 3 8 4 4 1 2 5 5 1 2 5 7 4 1 3 3 4 2 5 3 4 3 4 4 4 4 9 13 16 17 20 18 23
15 3 3 3 3 3 2 3 5 1 5 10 6 5 4 4 2 3 5 5 3 6 4 5 4 4 3 2 3 3 2 3 0 1 4 2 3 7 10 16 18 19 21 21 20
5 4 3 2 4 1 1 7 3 1 3 6 4 5 7 8 6 5 8 4 6 3 3 5 5 1 3 2 3 3 4 3 2 3 5 2 4 3 14 18 18 20 20 21 19
5 5 3 4 2 0 5 5 2 3 2 5 3 4 4 6 8 3 6 4 4 7 2 4 2 4 2 6 4 4 3 3 3 3 3 4 2 4 7 10 13 16 16 18 18
4 3 5 4 4 2 4 3 2 5 2 2 2 2 6 7 7 7 8 2 8 9 8 3 2 4 2 3 2 3 2 5 4 4 3 3 2 3 5 7 10 13 14 15 16
5 3 2 4 7 5 1 2 2 5 4 5 5 1 2 7 3 4 6 1 6 6 7 7 4 4 3 3 3 5 7 4 2 1 6 3 2 4 4 7 10 11 13 13 15
5 6 3 2 2 5 7 5 5 4 3 3 3 4 5 4 1 6 8 4 4 4 2 1 3 4 1 4 3 6 11 10 8 4 3 9 7 8 5 7 9 10 11 12 13
4 6 7 9 12 8 9 9 9 9 5 6 2 7 5 4 5 6 7 6 5 7 2 3 4 3 2 3 0 2 8 13 14 10 7 2 5 6 3 3 6 7 8 9 11
7 7 4 5 11 18 12 13 12 7 12 7 5 11 6 6 5 10 11 8 6 10 7 2 2 1 2 1 2 6 11 13 15 14 14 13 12 3 3 0 2 5 6 7 9
3 2 7 11 13 15 17 14 14 11 9 2 12 9 8 4 5 4 6 6 8 11 7 7 7 4 2 2 3 8 19 19 16 9 15 11 6 6 3 2 1 2 4 4 6
Wind_Direction
353 357 2 357 356 350 350 348 348 348 344 341 339 340 338 326 305 52 42 338 328 324 315 300 249 38 61 60 33 290 283 61 40 21 3 358 354 9 347 330 50 17 351 337 333
346 347 352 350 349 345 344 344 344 345 345 341 340 334 338 339 294 41 0 345 339 334 330 348 38 74 76 52 29 13 61 68 39 31 356 347 349 354 344 23 1 339 337 337 335
341 341 342 346 342 341 340 340 342 342 345 342 339 334 330 313 259 8 350 343 343 324 295 311 293 68 78 62 17 32 84 126 58 22 350 345 1 355 359 20 351 335 332 334 335
325 335 335 337 335 336 336 337 341 339 343 342 338 333 317 240 28 346 340 339 333 325 308 314 253 65 78 76 90 109 84 100 82 35 27 349 325 61 35 356 342 331 331 330 334
275 323 324 328 332 334 333 334 338 337 338 341 340 330 281 72 40 335 332 348 2 17 27 11 63 80 88 106 83 97 112 86 92 87 20 46 62 30 16 351 337 341 341 339 336
226 302 317 323 329 332 328 331 336 334 335 340 341 316 269 81 335 342 341 4 15 16 37 40 58 81 83 70 48 124 125 95 46 61 43 41 70 19 6 352 346 348 348 344 335
220 274 309 320 328 329 325 326 331 334 331 338 339 326 59 68 337 356 353 10 14 20 34 36 11 289 129 112 116 135 124 137 39 23 64 316 61 20 1 355 353 353 349 346 341
219 267 307 321 326 331 327 323 321 330 322 330 318 298 68 18 345 14 359 10 14 28 23 23 5 68 34 120 133 151 178 180 58 11 55 313 79 14 8 352 355 353 350 346 344
212 248 301 322 326 333 333 321 310 320 306 307 278 306 95 266 2 6 16 353 338 26 17 359 47 70 153 169 147 193 127 92 140 27 313 310 52 11 5 359 356 353 353 348 342
213 229 290 325 326 332 329 298 315 284 258 255 162 186 85 32 358 338 8 359 13 330 325 16 40 115 66 236 340 147 142 135 108 45 303 123 97 14 11 4 357 352 350 350 345
210 230 285 326 327 342 330 264 220 166 45 30 37 76 62 359 297 24 352 317 22 39 33 32 65 61 43 32 55 80 100 121 109 65 306 242 271 355 5 4 359 352 349 344 344
206 217 279 326 334 329 295 292 29 14 102 51 55 90 42 323 245 30 348 347 36 76 324 77 77 54 32 61 94 99 160 43 161 317 302 288 274 214 360 9 356 351 350 344 342
199 206 263 322 326 282 21 55 11 316 262 132 54 23 41 316 43 9 347 83 58 69 53 60 86 101 328 133 125 48 18 16 330 307 257 294 251 208 337 3 354 355 351 347 346
191 202 229 309 268 21 73 104 355 334 62 179 185 109 184 74 86 8 11 341 71 101 66 65 82 112 148 76 308 220 46 345 300 294 332 340 313 169 1 357 356 353 354 352 349
170 186 239 330 61 215 57 114 324 248 295 103 125 29 119 278 112 72 30 352 88 107 185 93 99 96 65 29 329 46 327 285 266 298 311 169 258 85 11 355 347 350 355 2 347
157 154 148 131 119 67 138 180 249 50 248 143 152 156 165 116 72 125 98 65 36 80 66 84 59 337 28 58 13 341 239 229 251 245 237 99 343 70 15 345 343 347 355 1 345
153 134 43 31 60 112 216 223 56 202 36 181 170 174 187 130 93 190 133 123 189 126 137 161 110 115 316 237 189 242 250 241 221 218 321 96 273 58 19 1 346 346 356 357 346
137 112 43 35 81 62 256 110 225 38 206 143 142 149 187 152 111 164 155 162 188 246 141 176 186 185 4 349 359 9 314 332 301 301 338 111 265 85 22 6 354 356 2 358 352
125 85 73 46 21 358 229 182 224 185 144 156 143 160 165 183 201 167 211 173 148 206 179 146 129 124 51 343 300 99 251 4 130 62 269 227 182 148 354 1 356 358 5 359 353
117 89 95 121 32 349 129 230 209 112 131 189 217 205 169 183 189 206 183 161 162 198 264 138 123 173 118 271 109 301 99 222 135 286 279 161 269 300 359 346 348 354 3 355 0
76 126 118 114 88 144 213 227 200 170 183 215 214 153 174 174 184 190 177 169 174 156 188 153 239 136 183 204 189 165 189 228 317 290 294 305 90 59 355 343 344 350 2 359 2
126 132 141 149 153 182 225 197 175 163 203 220 241 102 172 161 178 195 194 306 172 163 159 160 106 164 137 116 292 290 247 242 259 170 255 306 303 114 14 357 359 353 360 6 4
112 111 79 235 193 201 104 311 276 163 198 198 189 206 140 173 166 193 166 70 164 178 164 176 175 135 155 195 193 231 192 227 216 348 221 253 76 170 55 23 21 3 360 12 10
125 148 148 233 267 209 177 189 215 216 204 252 146 123 144 153 217 167 154 160 169 175 92 163 200 266 282 79 127 191 198 197 215 193 199 239 289 205 35 22 15 7 5 12 23
164 178 173 183 198 185 191 178 178 189 218 205 220 224 166 140 153 189 160 150 176 154 125 198 209 214 105 78 284 245 195 199 215 222 228 52 265 316 21 16 13 6 3 16 27
145 152 174 155 171 182 198 197 198 174 163 197 198 188 185 156 196 192 172 186 178 175 172 166 171 132 208 299 253 253 235 220 226 236 243 262 268 14 131 298 9 19 7 17 28
183 151 148 156 164 178 208 200 202 169 204 223 204 136 204 199 74 358 182 169 159 161 156 160 147 173 186 6 277 264 221 209 216 218 217 232 245 165 202 231 341 6 15 23 33